Time,TemperatureF,DewpointF,PressureIn,WindDirection,WindDirectionDegrees,WindSpeedMPH,WindSpeedGustMPH,Humidity,HourlyPrecipIn,Conditions,Clouds,dailyrainin,SoftwareType,DateUTC
2013-06-29 00:01:00,79.9,77.4,29.67,WSW,238,3.0,9.0,92,0.00,,,0.06,meteohub,2013-06-29 04:01:00,
2013-06-29 00:02:00,79.9,77.4,29.67,WSW,238,7.0,9.0,92,0.00,,,0.06,meteohub,2013-06-29 04:02:00,
2013-06-29 00:07:00,79.7,77.2,29.67,SW,221,6.0,9.0,92,0.00,,,0.06,meteohub,2013-06-29 04:07:00,
2013-06-29 00:12:00,79.7,77.2,29.67,West,260,4.0,9.0,92,0.00,,,0.06,meteohub,2013-06-29 04:12:00,
2013-06-29 00:17:00,79.7,77.2,29.67,WSW,255,2.0,9.0,92,0.00,,,0.06,meteohub,2013-06-29 04:17:00,
2013-06-29 00:22:00,79.5,77.0,29.67,WSW,252,4.0,9.0,92,0.00,,,0.00,meteohub,2013-06-29 04:22:00,
2013-06-29 00:27:00,79.5,77.0,29.67,SW,222,5.0,9.0,92,0.00,,,0.00,meteohub,2013-06-29 04:27:00,
2013-06-29 00:32:00,79.5,77.0,29.67,West,270,4.0,9.0,92,0.00,,,0.00,meteohub,2013-06-29 04:32:00,
2013-06-29 00:37:00,79.3,76.8,29.66,South,175,2.0,9.0,92,0.00,,,0.00,meteohub,2013-06-29 04:37:00,
2013-06-29 00:42:00,79.3,76.8,29.66,SW,225,1.0,9.0,92,0.00,,,0.00,meteohub,2013-06-29 04:42:00,
2013-06-29 00:47:00,79.3,76.8,29.66,WSW,243,2.0,9.0,92,0.00,,,0.00,meteohub,2013-06-29 04:47:00,
2013-06-29 00:52:00,79.3,76.8,29.65,SSW,203,2.0,9.0,92,0.00,,,1.55,meteohub,2013-06-29 04:52:00,
2013-06-29 00:57:00,79.3,76.8,29.65,SW,227,4.0,9.0,92,0.00,,,1.55,meteohub,2013-06-29 04:57:00,
2013-06-29 01:02:00,79.3,76.5,29.65,South,169,0.0,9.0,91,0.00,,,1.55,meteohub,2013-06-29 05:02:00,
2013-06-29 01:07:00,79.3,76.5,29.65,SW,231,4.0,9.0,91,0.00,,,0.06,meteohub,2013-06-29 05:07:00,
2013-06-29 01:12:00,79.3,76.5,29.65,SW,219,6.0,12.0,91,0.00,,,0.06,meteohub,2013-06-29 05:12:00,
2013-06-29 01:17:00,79.3,76.5,29.65,WSW,246,2.0,12.0,91,0.00,,,0.06,meteohub,2013-06-29 05:17:00,
2013-06-29 01:22:00,79.3,76.5,29.65,SW,215,11.0,12.0,91,0.00,,,0.06,meteohub,2013-06-29 05:22:00,
2013-06-29 01:27:00,79.3,76.5,29.65,WSW,246,1.0,12.0,91,0.00,,,0.00,meteohub,2013-06-29 05:27:00,
2013-06-29 01:32:00,79.3,76.5,29.65,WSW,242,6.0,12.0,91,0.00,,,0.00,meteohub,2013-06-29 05:32:00,
2013-06-29 01:37:00,79.3,76.5,29.65,West,273,4.0,13.0,91,0.00,,,0.00,meteohub,2013-06-29 05:37:00,
2013-06-29 01:42:00,79.3,76.5,29.66,West,275,4.0,13.0,91,0.00,,,0.00,meteohub,2013-06-29 05:42:00,
2013-06-29 01:47:00,79.5,76.6,29.66,WSW,254,6.0,13.0,91,0.00,,,0.00,meteohub,2013-06-29 05:47:00,
2013-06-29 01:52:00,79.5,76.3,29.65,WSW,242,5.0,14.0,90,0.00,,,0.00,meteohub,2013-06-29 05:52:00,
2013-06-29 01:57:00,79.3,76.1,29.65,SW,231,6.0,14.0,90,0.00,,,0.00,meteohub,2013-06-29 05:57:00,
2013-06-29 02:02:00,79.3,76.1,29.65,WSW,254,4.0,14.0,90,0.00,,,0.00,meteohub,2013-06-29 06:02:00,
2013-06-29 02:07:00,79.3,76.1,29.65,WSW,240,7.0,14.0,90,0.00,,,0.00,meteohub,2013-06-29 06:07:00,
2013-06-29 02:12:00,79.3,76.1,29.65,WSW,258,4.0,14.0,90,0.00,,,0.00,meteohub,2013-06-29 06:12:00,
2013-06-29 02:17:00,79.2,75.9,29.65,WSW,254,4.0,13.0,90,0.00,,,0.00,meteohub,2013-06-29 06:17:00,
2013-06-29 02:22:00,79.2,75.9,29.65,SW,220,5.0,13.0,90,0.00,,,0.00,meteohub,2013-06-29 06:22:00,
2013-06-29 02:27:00,79.2,75.9,29.64,SW,231,4.0,13.0,90,0.00,,,0.00,meteohub,2013-06-29 06:27:00,
2013-06-29 02:32:00,79.2,75.9,29.64,SW,219,2.0,13.0,90,0.00,,,0.00,meteohub,2013-06-29 06:32:00,
2013-06-29 02:37:00,79.0,76.1,29.64,West,259,9.0,13.0,91,0.00,,,0.00,meteohub,2013-06-29 06:37:00,
2013-06-29 02:42:00,79.0,76.1,29.64,WSW,239,2.0,12.0,91,0.00,,,0.00,meteohub,2013-06-29 06:42:00,
2013-06-29 02:47:00,79.0,76.1,29.64,SSW,209,3.0,12.0,91,0.00,,,0.00,meteohub,2013-06-29 06:47:00,
2013-06-29 02:52:00,79.0,76.1,29.63,West,262,2.0,12.0,91,0.00,,,0.00,meteohub,2013-06-29 06:52:00,
2013-06-29 02:57:00,78.8,75.9,29.63,SW,226,4.0,12.0,91,0.00,,,0.00,meteohub,2013-06-29 06:57:00,
2013-06-29 03:02:00,78.8,75.9,29.63,West,279,3.0,12.0,91,0.00,,,0.00,meteohub,2013-06-29 07:02:00,
2013-06-29 03:07:00,78.8,75.9,29.63,South,191,5.0,12.0,91,0.00,,,0.00,meteohub,2013-06-29 07:07:00,
2013-06-29 03:12:00,78.8,75.9,29.63,SW,215,5.0,12.0,91,0.00,,,0.00,meteohub,2013-06-29 07:12:00,
2013-06-29 03:17:00,78.6,75.7,29.63,West,265,3.0,12.0,91,0.00,,,0.00,meteohub,2013-06-29 07:17:00,
2013-06-29 03:22:00,78.8,75.9,29.63,West,274,5.0,12.0,91,0.00,,,0.00,meteohub,2013-06-29 07:22:00,
2013-06-29 03:27:00,78.8,75.9,29.63,SW,234,4.0,15.0,91,0.00,,,0.00,meteohub,2013-06-29 07:27:00,
2013-06-29 03:32:00,78.8,75.9,29.63,WNW,289,8.0,15.0,91,0.00,,,0.00,meteohub,2013-06-29 07:32:00,
2013-06-29 03:37:00,78.8,75.6,29.63,SW,223,6.0,15.0,90,0.00,,,0.00,meteohub,2013-06-29 07:37:00,
2013-06-29 03:42:00,79.0,75.7,29.64,West,269,5.0,15.0,90,0.00,,,0.00,meteohub,2013-06-29 07:42:00,
2013-06-29 03:47:00,79.0,75.7,29.64,SW,231,6.0,15.0,90,0.00,,,0.00,meteohub,2013-06-29 07:47:00,
2013-06-29 03:52:00,79.0,75.7,29.64,SW,234,5.0,16.0,90,0.00,,,0.00,meteohub,2013-06-29 07:52:00,
2013-06-29 03:57:00,79.0,75.7,29.64,WNW,296,7.0,16.0,90,0.00,,,0.00,meteohub,2013-06-29 07:57:00,
2013-06-29 04:02:00,79.0,75.7,29.64,WSW,244,5.0,16.0,90,0.00,,,0.00,meteohub,2013-06-29 08:02:00,
2013-06-29 04:07:00,79.0,75.7,29.64,West,272,11.0,16.0,90,0.00,,,0.00,meteohub,2013-06-29 08:07:00,
2013-06-29 04:12:00,79.0,75.4,29.64,SSW,202,4.0,14.0,89,0.00,,,0.00,meteohub,2013-06-29 08:12:00,
2013-06-29 04:17:00,79.0,75.4,29.64,WSW,239,6.0,14.0,89,0.00,,,0.00,meteohub,2013-06-29 08:17:00,
2013-06-29 04:22:00,79.0,75.4,29.64,West,279,9.0,14.0,89,0.00,,,0.00,meteohub,2013-06-29 08:22:00,
2013-06-29 04:27:00,79.0,75.4,29.64,WSW,244,12.0,14.0,89,0.00,,,0.00,meteohub,2013-06-29 08:27:00,
2013-06-29 04:32:00,79.0,75.4,29.64,WSW,248,4.0,14.0,89,0.00,,,0.00,meteohub,2013-06-29 08:32:00,
2013-06-29 04:37:00,78.8,75.2,29.65,WSW,245,2.0,14.0,89,0.00,,,0.00,meteohub,2013-06-29 08:37:00,
2013-06-29 04:42:00,78.8,75.2,29.65,West,273,11.0,14.0,89,0.00,,,0.00,meteohub,2013-06-29 08:42:00,
2013-06-29 04:47:00,79.0,75.4,29.65,West,264,7.0,14.0,89,0.00,,,0.00,meteohub,2013-06-29 08:47:00,
2013-06-29 04:52:00,79.0,75.4,29.65,WSW,240,2.0,14.0,89,0.00,,,0.00,meteohub,2013-06-29 08:52:00,
2013-06-29 04:57:00,79.0,75.4,29.65,West,281,6.0,14.0,89,0.00,,,0.00,meteohub,2013-06-29 08:57:00,
2013-06-29 05:02:00,79.0,75.2,29.66,WSW,245,5.0,15.0,88,0.00,,,0.00,meteohub,2013-06-29 09:02:00,
2013-06-29 05:07:00,79.0,75.2,29.66,West,265,10.0,15.0,88,0.00,,,0.00,meteohub,2013-06-29 09:07:00,
2013-06-29 05:12:00,79.0,75.2,29.66,SW,230,6.0,15.0,88,0.00,,,0.00,meteohub,2013-06-29 09:12:00,
2013-06-29 05:17:00,79.0,75.4,29.66,WSW,254,5.0,15.0,89,0.00,,,0.00,meteohub,2013-06-29 09:17:00,
2013-06-29 05:22:00,79.0,75.2,29.66,West,270,9.0,15.0,88,0.00,,,0.00,meteohub,2013-06-29 09:22:00,
2013-06-29 05:27:00,79.0,75.2,29.67,SW,230,3.0,15.0,88,0.00,,,0.00,meteohub,2013-06-29 09:27:00,
2013-06-29 05:32:00,79.0,75.2,29.66,WSW,237,11.0,15.0,88,0.00,,,0.00,meteohub,2013-06-29 09:32:00,
2013-06-29 05:37:00,78.8,75.0,29.66,WSW,254,3.0,16.0,88,0.00,,,0.00,meteohub,2013-06-29 09:37:00,
2013-06-29 05:42:00,78.6,74.8,29.66,WSW,253,7.0,16.0,88,0.00,,,0.00,meteohub,2013-06-29 09:42:00,
2013-06-29 05:47:00,78.6,74.8,29.66,SW,225,9.0,16.0,88,0.00,,,0.00,meteohub,2013-06-29 09:47:00,
2013-06-29 05:52:00,78.6,75.0,29.67,SSW,194,5.0,16.0,89,0.00,,,0.00,meteohub,2013-06-29 09:52:00,
2013-06-29 05:57:00,78.6,75.0,29.67,WNW,284,6.0,16.0,89,0.00,,,0.00,meteohub,2013-06-29 09:57:00,
2013-06-29 06:02:00,78.6,75.0,29.67,West,263,4.0,16.0,89,0.00,,,0.00,meteohub,2013-06-29 10:02:00,
2013-06-29 06:07:00,78.4,74.8,29.67,SW,234,7.0,16.0,89,0.00,,,0.00,meteohub,2013-06-29 10:07:00,
2013-06-29 06:12:00,78.4,74.8,29.67,WSW,239,5.0,13.0,89,0.00,,,0.00,meteohub,2013-06-29 10:12:00,
2013-06-29 06:17:00,78.4,74.8,29.67,West,265,4.0,13.0,89,0.00,,,0.00,meteohub,2013-06-29 10:17:00,
2013-06-29 06:22:00,78.4,74.8,29.67,WNW,288,6.0,13.0,89,0.00,,,0.00,meteohub,2013-06-29 10:22:00,
2013-06-29 06:27:00,78.4,74.8,29.67,SW,234,5.0,13.0,89,0.00,,,0.00,meteohub,2013-06-29 10:27:00,
2013-06-29 06:32:00,78.4,75.2,29.67,SW,233,4.0,13.0,90,0.00,,,0.00,meteohub,2013-06-29 10:32:00,
2013-06-29 06:37:00,78.4,75.2,29.67,West,260,5.0,13.0,90,0.00,,,0.00,meteohub,2013-06-29 10:37:00,
2013-06-29 06:42:00,78.6,75.4,29.67,West,277,6.0,13.0,90,0.00,,,0.00,meteohub,2013-06-29 10:42:00,
2013-06-29 06:47:00,78.6,75.4,29.67,SW,219,7.0,13.0,90,0.00,,,0.00,meteohub,2013-06-29 10:47:00,
2013-06-29 06:52:00,78.8,75.6,29.67,SW,226,6.0,13.0,90,0.00,,,0.00,meteohub,2013-06-29 10:52:00,
2013-06-29 06:57:00,79.0,75.4,29.67,WSW,246,5.0,13.0,89,0.00,,,0.00,meteohub,2013-06-29 10:57:00,
2013-06-29 07:02:00,79.2,75.6,29.67,WSW,252,4.0,11.0,89,0.00,,,0.00,meteohub,2013-06-29 11:02:00,
2013-06-29 07:07:00,79.3,75.6,29.67,WSW,257,5.0,11.0,88,0.00,,,0.00,meteohub,2013-06-29 11:07:00,
2013-06-29 07:12:00,79.5,75.6,29.67,SW,224,3.0,11.0,88,0.00,,,0.00,meteohub,2013-06-29 11:12:00,
2013-06-29 07:17:00,79.7,75.7,29.66,SSW,200,7.0,11.0,88,0.00,,,0.00,meteohub,2013-06-29 11:17:00,
2013-06-29 07:23:00,79.7,75.7,29.67,West,271,5.0,11.0,88,0.00,,,0.00,meteohub,2013-06-29 11:23:00,
2013-06-29 07:28:00,79.7,75.7,29.67,SW,229,5.0,11.0,88,0.00,,,0.00,meteohub,2013-06-29 11:28:00,
2013-06-29 07:33:00,79.9,75.9,29.67,SW,228,4.0,11.0,88,0.00,,,0.00,meteohub,2013-06-29 11:33:00,
2013-06-29 07:38:00,80.1,76.1,29.67,West,265,4.0,11.0,88,0.00,,,0.00,meteohub,2013-06-29 11:38:00,
2013-06-29 07:43:00,80.2,76.1,29.67,SW,236,10.0,11.0,87,0.00,,,0.00,meteohub,2013-06-29 11:43:00,
2013-06-29 07:48:00,80.2,76.1,29.67,SW,219,6.0,11.0,87,0.00,,,0.00,meteohub,2013-06-29 11:48:00,
2013-06-29 07:53:00,80.1,75.6,29.67,West,259,4.0,11.0,86,0.00,,,0.00,meteohub,2013-06-29 11:53:00,
2013-06-29 07:58:00,80.1,75.6,29.66,North,0,7.0,15.0,86,0.00,,,0.00,meteohub,2013-06-29 11:58:00,
2013-06-29 08:03:00,80.2,75.7,29.66,WNW,288,6.0,15.0,86,0.00,,,0.00,meteohub,2013-06-29 12:03:00,
2013-06-29 08:08:00,80.4,75.2,29.67,West,281,7.0,15.0,84,0.00,,,0.00,meteohub,2013-06-29 12:08:00,
2013-06-29 08:13:00,80.8,75.6,29.67,West,271,7.0,15.0,84,0.00,,,0.00,meteohub,2013-06-29 12:13:00,
2013-06-29 08:18:00,81.0,75.7,29.67,WSW,257,6.0,15.0,84,0.00,,,0.00,meteohub,2013-06-29 12:18:00,
2013-06-29 08:23:00,81.0,75.7,29.67,WSW,242,6.0,15.0,84,0.00,,,0.00,meteohub,2013-06-29 12:23:00,
2013-06-29 08:28:00,81.0,75.4,29.68,West,268,10.0,15.0,83,0.00,,,0.00,meteohub,2013-06-29 12:28:00,
2013-06-29 08:33:00,81.0,75.4,29.67,West,268,9.0,15.0,83,0.00,,,0.00,meteohub,2013-06-29 12:33:00,
2013-06-29 08:38:00,80.8,75.6,29.68,WSW,242,6.0,14.0,84,0.00,,,0.00,meteohub,2013-06-29 12:38:00,
2013-06-29 08:43:00,80.8,75.6,29.68,West,279,10.0,14.0,84,0.00,,,0.00,meteohub,2013-06-29 12:43:00,
2013-06-29 08:48:00,80.8,75.6,29.68,North,0,5.0,14.0,84,0.00,,,0.00,meteohub,2013-06-29 12:48:00,
2013-06-29 08:53:00,80.8,75.6,29.68,North,0,8.0,14.0,84,0.00,,,0.00,meteohub,2013-06-29 12:53:00,
2013-06-29 08:58:00,80.6,75.0,29.68,West,276,7.0,14.0,83,0.00,,,0.00,meteohub,2013-06-29 12:58:00,
2013-06-29 09:03:00,80.4,74.8,29.68,North,0,7.0,14.0,83,0.00,,,0.00,meteohub,2013-06-29 13:03:00,
2013-06-29 09:08:00,80.4,74.5,29.69,North,0,5.0,14.0,82,0.00,,,0.00,meteohub,2013-06-29 13:08:00,
2013-06-29 09:13:00,81.0,75.4,29.69,North,0,3.0,13.0,83,0.00,,,0.00,meteohub,2013-06-29 13:13:00,
2013-06-29 09:18:00,81.3,74.8,29.69,West,260,3.0,13.0,81,0.00,,,0.00,meteohub,2013-06-29 13:18:00,
2013-06-29 09:23:00,81.7,74.8,29.69,North,0,9.0,13.0,80,0.00,,,0.00,meteohub,2013-06-29 13:23:00,
2013-06-29 09:28:00,81.1,73.9,29.69,West,260,5.0,13.0,79,0.00,,,0.00,meteohub,2013-06-29 13:28:00,
2013-06-29 09:33:00,81.7,74.8,29.69,North,0,6.0,13.0,80,0.00,,,0.00,meteohub,2013-06-29 13:33:00,
2013-06-29 09:38:00,81.9,74.3,29.69,West,259,10.0,13.0,78,0.00,,,0.00,meteohub,2013-06-29 13:38:00,
2013-06-29 09:43:00,81.7,74.1,29.69,West,273,6.0,13.0,78,0.00,,,0.00,meteohub,2013-06-29 13:43:00,
2013-06-29 09:48:00,81.3,73.8,29.69,North,0,12.0,15.0,78,0.00,,,0.00,meteohub,2013-06-29 13:48:00,
2013-06-29 09:53:00,81.1,73.6,29.69,West,265,8.0,15.0,78,0.00,,,0.00,meteohub,2013-06-29 13:53:00,
2013-06-29 09:58:00,81.0,73.4,29.69,North,0,8.0,15.0,78,0.00,,,0.00,meteohub,2013-06-29 13:58:00,
2013-06-29 10:03:00,81.0,73.4,29.69,WNW,290,6.0,15.0,78,0.00,,,0.00,meteohub,2013-06-29 14:03:00,
2013-06-29 10:08:00,80.8,73.2,29.69,North,0,9.0,15.0,78,0.00,,,0.00,meteohub,2013-06-29 14:08:00,
2013-06-29 10:13:00,80.4,72.9,29.69,West,266,8.0,15.0,78,0.00,,,0.00,meteohub,2013-06-29 14:13:00,
2013-06-29 10:18:00,80.1,73.4,29.69,WSW,242,7.0,15.0,80,0.00,,,0.00,meteohub,2013-06-29 14:18:00,
2013-06-29 10:23:00,79.3,73.4,29.69,North,0,6.0,14.0,82,0.00,,,0.00,meteohub,2013-06-29 14:23:00,
2013-06-29 10:28:00,79.0,73.4,29.68,North,0,5.0,14.0,83,0.00,,,0.00,meteohub,2013-06-29 14:28:00,
2013-06-29 10:33:00,78.4,73.2,29.68,West,260,4.0,14.0,84,0.00,,,0.00,meteohub,2013-06-29 14:33:00,
2013-06-29 10:38:00,78.3,73.4,29.68,West,270,2.0,14.0,85,0.00,,,0.00,meteohub,2013-06-29 14:38:00,
2013-06-29 10:43:00,78.1,73.2,29.68,West,263,2.0,14.0,85,0.00,,,0.00,meteohub,2013-06-29 14:43:00,
2013-06-29 10:48:00,78.1,73.6,29.68,WSW,246,5.0,14.0,86,0.00,,,0.00,meteohub,2013-06-29 14:48:00,
2013-06-29 10:53:00,78.1,73.9,29.69,West,263,1.0,14.0,87,0.00,,,0.00,meteohub,2013-06-29 14:53:00,
2013-06-29 10:58:00,78.1,73.9,29.69,North,0,3.0,9.0,87,0.00,,,0.00,meteohub,2013-06-29 14:58:00,
2013-06-29 11:03:00,77.9,73.8,29.70,WSW,246,3.0,9.0,87,0.00,,,0.00,meteohub,2013-06-29 15:03:00,
2013-06-29 11:08:00,77.9,73.8,29.70,West,260,2.0,9.0,87,0.00,,,0.00,meteohub,2013-06-29 15:08:00,
2013-06-29 11:13:00,77.7,73.9,29.69,SW,223,4.0,9.0,88,0.00,,,0.00,meteohub,2013-06-29 15:13:00,
2013-06-29 11:18:00,77.7,73.9,29.69,SW,219,2.0,9.0,88,0.00,,,0.00,meteohub,2013-06-29 15:18:00,
2013-06-29 11:23:00,77.7,73.9,29.70,WSW,242,5.0,9.0,88,0.00,,,0.00,meteohub,2013-06-29 15:23:00,
2013-06-29 11:28:00,77.9,73.8,29.70,WSW,242,2.0,9.0,87,0.00,,,0.00,meteohub,2013-06-29 15:28:00,
2013-06-29 11:33:00,78.1,74.3,29.70,SSW,209,1.0,9.0,88,0.00,,,0.00,meteohub,2013-06-29 15:33:00,
2013-06-29 11:38:00,78.1,74.3,29.70,SW,214,0.0,7.0,88,0.00,,,0.00,meteohub,2013-06-29 15:38:00,
2013-06-29 11:43:00,78.3,74.5,29.70,WSW,257,3.0,7.0,88,0.00,,,0.00,meteohub,2013-06-29 15:43:00,
2013-06-29 11:48:00,78.3,74.5,29.70,WSW,242,3.0,7.0,88,0.00,,,0.00,meteohub,2013-06-29 15:48:00,
2013-06-29 11:54:00,78.4,74.3,29.70,WSW,252,3.0,7.0,87,0.00,,,0.00,meteohub,2013-06-29 15:54:00,
2013-06-29 11:59:00,78.4,74.3,29.70,SSW,198,3.0,7.0,87,0.00,,,0.00,meteohub,2013-06-29 15:59:00,
2013-06-29 12:04:00,78.8,74.3,29.70,WSW,254,4.0,7.0,86,0.00,,,0.00,meteohub,2013-06-29 16:04:00,
2013-06-29 12:09:00,79.3,74.5,29.70,SW,226,4.0,7.0,85,0.00,,,0.00,meteohub,2013-06-29 16:09:00,
2013-06-29 12:14:00,79.7,74.5,29.70,West,263,2.0,9.0,84,0.00,,,0.00,meteohub,2013-06-29 16:14:00,
2013-06-29 12:19:00,79.9,74.3,29.70,North,0,2.0,9.0,83,0.00,,,0.00,meteohub,2013-06-29 16:19:00,
2013-06-29 12:24:00,79.9,74.3,29.70,SW,229,3.0,9.0,83,0.00,,,0.00,meteohub,2013-06-29 16:24:00,
2013-06-29 12:29:00,79.9,74.7,29.70,West,259,3.0,9.0,84,0.00,,,0.00,meteohub,2013-06-29 16:29:00,
2013-06-29 12:34:00,80.2,74.7,29.70,WSW,240,4.0,9.0,83,0.00,,,0.00,meteohub,2013-06-29 16:34:00,
2013-06-29 12:39:00,80.4,74.8,29.70,North,0,7.0,9.0,83,0.00,,,0.00,meteohub,2013-06-29 16:39:00,
2013-06-29 12:44:00,80.2,74.7,29.70,SSW,205,2.0,9.0,83,0.00,,,0.00,meteohub,2013-06-29 16:44:00,
2013-06-29 12:49:00,80.1,74.8,29.70,SW,219,3.0,9.0,84,0.00,,,0.00,meteohub,2013-06-29 16:49:00,
2013-06-29 12:54:00,80.1,75.2,29.70,SSW,201,4.0,9.0,85,0.00,,,0.00,meteohub,2013-06-29 16:54:00,
2013-06-29 12:59:00,79.9,74.7,29.70,WSW,241,1.0,11.0,84,0.00,,,0.00,meteohub,2013-06-29 16:59:00,
2013-06-29 13:04:00,79.9,74.3,29.71,SW,217,4.0,11.0,83,0.00,,,0.00,meteohub,2013-06-29 17:04:00,
2013-06-29 13:09:00,79.9,74.7,29.71,West,262,4.0,11.0,84,0.00,,,0.00,meteohub,2013-06-29 17:09:00,
2013-06-29 13:14:00,79.9,74.7,29.71,WSW,258,2.0,11.0,84,0.00,,,0.00,meteohub,2013-06-29 17:14:00,
2013-06-29 13:19:00,79.9,74.7,29.71,North,0,4.0,11.0,84,0.00,,,0.00,meteohub,2013-06-29 17:19:00,
2013-06-29 13:24:00,80.1,74.5,29.71,West,266,4.0,11.0,83,0.00,,,0.00,meteohub,2013-06-29 17:24:00,
2013-06-29 13:29:00,80.4,74.5,29.71,West,263,5.0,11.0,82,0.00,,,0.00,meteohub,2013-06-29 17:29:00,
2013-06-29 13:34:00,80.8,74.5,29.71,WSW,244,6.0,11.0,81,0.00,,,0.00,meteohub,2013-06-29 17:34:00,
2013-06-29 13:39:00,81.0,74.1,29.71,West,271,5.0,10.0,80,0.00,,,0.00,meteohub,2013-06-29 17:39:00,
2013-06-29 13:44:00,81.1,74.3,29.71,West,271,6.0,10.0,80,0.00,,,0.00,meteohub,2013-06-29 17:44:00,
2013-06-29 13:49:00,81.3,74.8,29.70,SW,234,1.0,10.0,81,0.00,,,0.00,meteohub,2013-06-29 17:49:00,
2013-06-29 13:54:00,81.5,74.7,29.70,West,269,1.0,10.0,80,0.00,,,0.00,meteohub,2013-06-29 17:54:00,
2013-06-29 13:59:00,81.7,74.8,29.70,NW,311,1.0,10.0,80,0.00,,,0.00,meteohub,2013-06-29 17:59:00,
2013-06-29 14:04:00,81.7,74.8,29.70,West,278,5.0,12.0,80,0.00,,,0.00,meteohub,2013-06-29 18:04:00,
2013-06-29 14:09:00,81.9,74.3,29.70,WSW,250,4.0,12.0,78,0.00,,,0.00,meteohub,2013-06-29 18:09:00,
2013-06-29 14:14:00,82.0,74.5,29.70,West,277,8.0,12.0,78,0.00,,,0.00,meteohub,2013-06-29 18:14:00,
2013-06-29 14:19:00,82.0,74.1,29.70,West,267,8.0,12.0,77,0.00,,,0.00,meteohub,2013-06-29 18:19:00,
2013-06-29 14:24:00,82.2,74.3,29.70,WSW,256,6.0,12.0,77,0.00,,,0.00,meteohub,2013-06-29 18:24:00,
2013-06-29 14:29:00,82.2,74.7,29.70,SSW,200,3.0,14.0,78,0.00,,,0.00,meteohub,2013-06-29 18:29:00,
2013-06-29 14:34:00,82.4,74.8,29.70,SSW,203,4.0,14.0,78,0.00,,,0.00,meteohub,2013-06-29 18:34:00,
2013-06-29 14:39:00,82.2,75.0,29.70,SW,219,10.0,14.0,79,0.00,,,0.00,meteohub,2013-06-29 18:39:00,
2013-06-29 14:44:00,81.9,74.7,29.70,WSW,240,4.0,14.0,79,0.00,,,0.00,meteohub,2013-06-29 18:44:00,
2013-06-29 14:49:00,81.7,74.8,29.70,SW,220,5.0,14.0,80,0.00,,,0.00,meteohub,2013-06-29 18:49:00,
2013-06-29 14:54:00,82.2,75.4,29.70,SW,214,4.0,14.0,80,0.00,,,0.00,meteohub,2013-06-29 18:54:00,
2013-06-29 14:59:00,82.9,75.7,29.70,SSW,208,10.0,14.0,79,0.00,,,0.00,meteohub,2013-06-29 18:59:00,
2013-06-29 15:04:00,82.8,75.2,29.70,West,268,12.0,14.0,78,0.00,,,0.00,meteohub,2013-06-29 19:04:00,
2013-06-29 15:09:00,82.4,75.2,29.70,WSW,238,7.0,14.0,79,0.00,,,0.00,meteohub,2013-06-29 19:09:00,
2013-06-29 15:14:00,82.6,75.4,29.70,WSW,240,4.0,14.0,79,0.00,,,0.00,meteohub,2013-06-29 19:14:00,
2013-06-29 15:19:00,82.8,75.6,29.70,SW,217,4.0,14.0,79,0.00,,,0.00,meteohub,2013-06-29 19:19:00,
2013-06-29 15:24:00,82.6,75.0,29.70,SSW,198,6.0,14.0,78,0.00,,,0.00,meteohub,2013-06-29 19:24:00,
2013-06-29 15:29:00,82.4,75.2,29.70,West,268,4.0,14.0,79,0.00,,,0.00,meteohub,2013-06-29 19:29:00,
2013-06-29 15:34:00,82.2,75.0,29.70,WSW,243,5.0,16.0,79,0.00,,,0.00,meteohub,2013-06-29 19:34:00,
2013-06-29 15:39:00,82.2,75.0,29.70,SSW,209,5.0,16.0,79,0.00,,,0.00,meteohub,2013-06-29 19:39:00,
2013-06-29 15:40:00,82.2,75.0,29.71,West,267,9.0,16.0,79,0.00,,,0.00,meteohub,2013-06-29 19:40:00,
2013-06-29 15:45:00,82.2,75.0,29.70,SSW,202,6.0,16.0,79,0.00,,,0.00,meteohub,2013-06-29 19:45:00,
2013-06-29 15:50:00,82.6,75.4,29.70,WSW,237,3.0,16.0,79,0.00,,,0.00,meteohub,2013-06-29 19:50:00,
2013-06-29 15:55:00,82.6,75.7,29.70,WSW,240,8.0,16.0,80,0.00,,,0.00,meteohub,2013-06-29 19:55:00,
2013-06-29 16:00:00,82.8,75.9,29.70,SW,229,3.0,18.0,80,0.00,,,0.00,meteohub,2013-06-29 20:00:00,
2013-06-29 16:05:00,83.3,75.7,29.70,WSW,249,7.0,18.0,78,0.00,,,0.00,meteohub,2013-06-29 20:05:00,
2013-06-29 16:10:00,83.7,76.1,29.70,WSW,253,3.0,18.0,78,0.00,,,0.00,meteohub,2013-06-29 20:10:00,
2013-06-29 16:15:00,84.4,76.5,29.70,WSW,237,11.0,18.0,77,0.00,,,0.00,meteohub,2013-06-29 20:15:00,
2013-06-29 16:20:00,84.4,76.5,29.70,WSW,239,2.0,16.0,77,-99.99,,,0.00,meteohub,2013-06-29 20:20:00,
2013-06-29 16:25:00,83.5,75.9,29.70,SW,225,6.0,16.0,78,-99.99,,,0.00,meteohub,2013-06-29 20:25:00,
2013-06-29 16:30:00,82.9,76.1,29.70,SSW,193,6.0,16.0,80,-99.99,,,0.00,meteohub,2013-06-29 20:30:00,
2013-06-29 16:35:00,82.8,75.9,29.71,West,274,16.0,16.0,80,-99.99,,,0.00,meteohub,2013-06-29 20:35:00,
2013-06-29 16:40:00,82.6,76.1,29.71,WSW,237,11.0,16.0,81,0.00,,,0.00,meteohub,2013-06-29 20:40:00,
2013-06-29 16:45:00,82.6,76.5,29.70,West,259,8.0,17.0,82,0.00,,,0.00,meteohub,2013-06-29 20:45:00,
2013-06-29 16:50:00,82.2,76.1,29.70,WSW,247,8.0,17.0,82,0.00,,,0.00,meteohub,2013-06-29 20:50:00,
2013-06-29 16:55:00,82.4,76.6,29.70,SW,221,10.0,17.0,83,0.00,,,0.00,meteohub,2013-06-29 20:55:00,
2013-06-29 17:00:00,82.4,76.3,29.70,SW,225,9.0,17.0,82,0.00,,,0.00,meteohub,2013-06-29 21:00:00,
2013-06-29 17:05:00,82.0,76.3,29.70,West,259,6.0,17.0,83,0.00,,,0.00,meteohub,2013-06-29 21:05:00,
2013-06-29 17:10:00,81.9,76.1,29.71,SW,236,7.0,17.0,83,0.00,,,0.00,meteohub,2013-06-29 21:10:00,
2013-06-29 17:15:00,81.7,76.3,29.71,SSW,193,3.0,17.0,84,0.00,,,0.00,meteohub,2013-06-29 21:15:00,
2013-06-29 17:20:00,81.5,76.5,29.71,West,281,4.0,17.0,85,0.00,,,0.00,meteohub,2013-06-29 21:20:00,
2013-06-29 17:25:00,81.3,76.5,29.71,WSW,240,4.0,15.0,85,0.00,,,0.00,meteohub,2013-06-29 21:25:00,
2013-06-29 17:30:00,81.1,76.3,29.70,SSW,198,8.0,15.0,85,0.00,,,0.00,meteohub,2013-06-29 21:30:00,
2013-06-29 17:35:00,80.8,75.9,29.71,South,178,5.0,15.0,85,0.00,,,0.00,meteohub,2013-06-29 21:35:00,
2013-06-29 17:40:00,80.4,75.9,29.71,WSW,240,10.0,15.0,86,0.00,,,0.00,meteohub,2013-06-29 21:40:00,
2013-06-29 17:45:00,80.4,75.9,29.71,West,274,1.0,-999.0,86,0.00,,,0.00,meteohub,2013-06-29 21:45:00,
2013-06-29 17:50:00,80.2,76.1,29.70,WNW,286,6.0,-999.0,87,0.00,,,0.00,meteohub,2013-06-29 21:50:00,
2013-06-29 17:55:00,80.1,75.9,29.70,South,185,7.0,-999.0,87,-99.99,,,0.00,meteohub,2013-06-29 21:55:00,
2013-06-29 18:00:00,79.9,75.7,29.70,WSW,258,6.0,-999.0,87,-99.99,,,0.00,meteohub,2013-06-29 22:00:00,
2013-06-29 18:05:00,79.9,75.7,29.70,WSW,257,2.0,-999.0,87,-99.99,,,0.00,meteohub,2013-06-29 22:05:00,
2013-06-29 18:10:00,79.7,75.6,29.71,West,277,5.0,-999.0,87,-99.99,,,0.00,meteohub,2013-06-29 22:10:00,
2013-06-29 18:15:00,79.7,75.7,29.71,WSW,242,3.0,-999.0,88,-99.99,,,0.00,meteohub,2013-06-29 22:15:00,
2013-06-29 18:20:00,79.5,75.6,29.70,SW,220,7.0,13.0,88,0.00,,,0.00,meteohub,2013-06-29 22:20:00,
2013-06-29 18:25:00,79.3,75.6,29.71,WSW,238,5.0,13.0,88,0.00,,,0.00,meteohub,2013-06-29 22:25:00,
2013-06-29 18:30:00,79.3,75.6,29.70,SW,227,5.0,13.0,88,0.00,,,0.00,meteohub,2013-06-29 22:30:00,
2013-06-29 18:35:00,79.2,75.4,29.71,SSW,205,5.0,13.0,88,0.00,,,0.00,meteohub,2013-06-29 22:35:00,
2013-06-29 18:40:00,78.8,75.0,29.71,SSW,196,5.0,13.0,88,0.00,,,0.00,meteohub,2013-06-29 22:40:00,
2013-06-29 18:45:00,78.4,74.8,29.71,SW,221,8.0,13.0,89,0.00,,,0.00,meteohub,2013-06-29 22:45:00,
2013-06-29 18:50:00,78.1,74.5,29.70,West,259,4.0,13.0,89,0.01,,,0.00,meteohub,2013-06-29 22:50:00,
2013-06-29 18:55:00,77.7,73.2,29.71,WNW,291,7.0,13.0,86,0.01,,,0.00,meteohub,2013-06-29 22:55:00,
2013-06-29 19:00:00,77.5,72.7,29.71,WSW,248,6.0,13.0,85,0.01,,,0.00,meteohub,2013-06-29 23:00:00,
2013-06-29 19:05:00,77.4,72.5,29.71,West,267,4.0,13.0,85,0.01,,,0.01,meteohub,2013-06-29 23:05:00,
2013-06-29 19:10:00,77.2,72.7,29.72,WSW,255,6.0,13.0,86,0.01,,,0.01,meteohub,2013-06-29 23:10:00,
2013-06-29 19:15:00,76.8,72.3,29.72,WSW,248,2.0,13.0,86,0.01,,,0.01,meteohub,2013-06-29 23:15:00,
2013-06-29 19:20:00,76.6,72.5,29.72,WSW,242,2.0,10.0,87,0.01,,,0.01,meteohub,2013-06-29 23:20:00,
2013-06-29 19:25:00,76.5,72.7,29.72,West,271,2.0,10.0,88,0.01,,,0.01,meteohub,2013-06-29 23:25:00,
2013-06-29 19:30:00,76.5,73.0,29.72,SW,221,1.0,10.0,89,0.01,,,0.01,meteohub,2013-06-29 23:30:00,
2013-06-29 19:35:00,76.3,73.0,29.72,SW,227,0.0,10.0,90,0.01,,,0.01,meteohub,2013-06-29 23:35:00,
2013-06-29 19:40:00,76.3,73.0,29.72,SSE,168,2.0,10.0,90,0.01,,,0.01,meteohub,2013-06-29 23:40:00,
2013-06-29 19:45:00,76.5,73.6,29.72,SW,225,4.0,8.0,91,0.01,,,0.01,meteohub,2013-06-29 23:45:00,
2013-06-29 19:50:00,76.6,74.1,29.72,SSW,204,1.0,8.0,92,0.01,,,0.01,meteohub,2013-06-29 23:50:00,
2013-06-29 19:55:00,76.8,74.3,29.72,WSW,243,5.0,8.0,92,0.01,,,0.01,meteohub,2013-06-29 23:55:00,
2013-06-29 20:00:00,77.2,74.7,29.72,SW,219,4.0,8.0,92,0.01,,,0.01,meteohub,2013-06-30 00:00:00,
2013-06-29 20:05:00,77.4,74.5,29.72,WSW,253,4.0,8.0,91,0.00,,,0.01,meteohub,2013-06-30 00:05:00,
2013-06-29 20:11:00,77.5,74.7,29.73,SW,217,1.0,10.0,91,0.00,,,0.01,meteohub,2013-06-30 00:11:00,
2013-06-29 20:15:00,77.5,74.7,29.73,WSW,238,7.0,10.0,91,0.00,,,0.01,meteohub,2013-06-30 00:15:00,
2013-06-29 20:21:00,77.5,74.3,29.73,West,273,3.0,10.0,90,0.00,,,0.01,meteohub,2013-06-30 00:21:00,
2013-06-29 20:26:00,77.5,74.3,29.73,SSW,205,7.0,10.0,90,0.00,,,0.01,meteohub,2013-06-30 00:26:00,
2013-06-29 20:31:00,77.5,74.3,29.73,SW,216,2.0,10.0,90,0.00,,,0.01,meteohub,2013-06-30 00:31:00,
2013-06-29 20:36:00,77.5,74.3,29.73,WSW,238,8.0,12.0,90,0.00,,,0.01,meteohub,2013-06-30 00:36:00,
2013-06-29 20:41:00,77.5,74.3,29.73,SW,221,1.0,12.0,90,0.00,,,0.01,meteohub,2013-06-30 00:41:00,
2013-06-29 20:46:00,77.5,74.3,29.73,SW,234,3.0,12.0,90,0.00,,,0.01,meteohub,2013-06-30 00:46:00,
2013-06-29 20:51:00,77.5,74.3,29.73,SSW,211,4.0,12.0,90,0.00,,,0.01,meteohub,2013-06-30 00:51:00,
2013-06-29 20:56:00,77.5,74.3,29.73,WNW,290,5.0,12.0,90,0.00,,,0.01,meteohub,2013-06-30 00:56:00,
2013-06-29 21:01:00,77.5,74.3,29.73,SW,222,6.0,11.0,90,0.00,,,0.01,meteohub,2013-06-30 01:01:00,
2013-06-29 21:06:00,77.4,74.1,29.74,West,269,3.0,11.0,90,0.00,,,0.01,meteohub,2013-06-30 01:06:00,
2013-06-29 21:11:00,76.6,73.2,29.74,West,275,8.0,11.0,89,0.00,,,0.01,meteohub,2013-06-30 01:11:00,
2013-06-29 21:16:00,75.9,72.5,29.74,West,269,4.0,11.0,89,0.00,,,0.01,meteohub,2013-06-30 01:16:00,
2013-06-29 21:21:00,75.4,72.3,29.74,SW,221,4.0,12.0,90,0.01,,,0.01,meteohub,2013-06-30 01:21:00,
2013-06-29 21:26:00,74.8,72.0,29.74,SW,235,1.0,12.0,91,0.01,,,0.01,meteohub,2013-06-30 01:26:00,
2013-06-29 21:31:00,74.5,71.6,29.74,WSW,257,2.0,12.0,91,0.01,,,0.01,meteohub,2013-06-30 01:31:00,
2013-06-29 21:36:00,74.3,71.8,29.74,SW,222,4.0,12.0,92,0.01,,,0.02,meteohub,2013-06-30 01:36:00,
2013-06-29 21:41:00,74.1,71.6,29.75,SSW,201,0.0,12.0,92,0.01,,,0.02,meteohub,2013-06-30 01:41:00,
2013-06-29 21:46:00,73.9,71.4,29.74,WSW,242,2.0,7.0,92,0.01,,,0.02,meteohub,2013-06-30 01:46:00,
2013-06-29 21:51:00,73.9,71.4,29.75,WSW,246,3.0,7.0,92,0.01,,,0.02,meteohub,2013-06-30 01:51:00,
2013-06-29 21:56:00,74.1,71.6,29.75,WSW,249,4.0,7.0,92,0.01,,,0.02,meteohub,2013-06-30 01:56:00,
2013-06-29 22:01:00,74.3,71.8,29.75,SW,219,0.0,7.0,92,0.01,,,0.02,meteohub,2013-06-30 02:01:00,
2013-06-29 22:06:00,74.5,72.0,29.75,SW,219,4.0,7.0,92,0.01,,,0.02,meteohub,2013-06-30 02:06:00,
2013-06-29 22:11:00,74.7,72.5,29.75,SW,229,6.0,8.0,93,0.01,,,0.02,meteohub,2013-06-30 02:11:00,
2013-06-29 22:16:00,74.8,72.7,29.75,SW,236,0.0,8.0,93,0.01,,,0.02,meteohub,2013-06-30 02:16:00,
2013-06-29 22:21:00,74.8,72.7,29.75,SW,216,3.0,8.0,93,0.01,,,0.02,meteohub,2013-06-30 02:21:00,
2013-06-29 22:26:00,75.2,73.4,29.76,SW,227,2.0,8.0,94,0.01,,,0.02,meteohub,2013-06-30 02:26:00,
2013-06-29 22:31:00,75.6,73.8,29.76,WSW,257,1.0,8.0,94,0.00,,,0.02,meteohub,2013-06-30 02:31:00,
2013-06-29 22:36:00,75.7,73.9,29.76,SSW,205,4.0,8.0,94,0.00,,,0.02,meteohub,2013-06-30 02:36:00,
2013-06-29 22:41:00,76.1,74.3,29.76,WSW,237,5.0,8.0,94,0.00,,,0.02,meteohub,2013-06-30 02:41:00,
2013-06-29 22:46:00,76.3,74.7,29.76,SW,217,3.0,8.0,95,0.00,,,0.02,meteohub,2013-06-30 02:46:00,
2013-06-29 22:51:00,76.6,75.0,29.76,SW,223,3.0,8.0,95,0.00,,,0.02,meteohub,2013-06-30 02:51:00,
2013-06-29 22:56:00,76.8,75.2,29.77,West,266,2.0,10.0,95,-99.99,,,0.02,meteohub,2013-06-30 02:56:00,
2013-06-29 23:01:00,77.2,75.6,29.77,SW,230,2.0,10.0,95,-99.99,,,0.02,meteohub,2013-06-30 03:01:00,
2013-06-29 23:06:00,77.4,75.6,29.77,SSW,192,4.0,10.0,94,-99.99,,,0.02,meteohub,2013-06-30 03:06:00,
2013-06-29 23:11:00,77.4,75.6,29.77,SW,233,9.0,10.0,94,-99.99,,,0.02,meteohub,2013-06-30 03:11:00,
2013-06-29 23:16:00,77.2,75.0,29.77,SSE,153,7.0,10.0,93,-99.99,,,0.02,meteohub,2013-06-30 03:16:00,
2013-06-29 23:21:00,77.2,75.0,29.78,SW,222,4.0,-999.0,93,0.00,,,0.02,meteohub,2013-06-30 03:21:00,
2013-06-29 23:26:00,77.0,74.8,29.78,West,269,2.0,-999.0,93,0.00,,,0.02,meteohub,2013-06-30 03:26:00,
2013-06-29 23:31:00,76.8,74.7,29.78,WSW,255,4.0,-999.0,93,0.00,,,0.02,meteohub,2013-06-30 03:31:00,
2013-06-29 23:36:00,76.8,74.7,29.78,WSW,248,3.0,-999.0,93,0.00,,,0.03,meteohub,2013-06-30 03:36:00,
2013-06-29 23:41:00,76.8,74.7,29.78,SSW,209,6.0,-999.0,93,0.01,,,0.03,meteohub,2013-06-30 03:41:00,
2013-06-29 23:46:00,76.8,74.7,29.79,SW,225,6.0,10.0,93,0.01,,,0.03,meteohub,2013-06-30 03:46:00,
2013-06-29 23:51:00,76.6,74.5,29.78,SW,216,1.0,10.0,93,0.01,,,0.03,meteohub,2013-06-30 03:51:00,
2013-06-29 23:56:00,76.5,74.3,29.78,WSW,239,6.0,10.0,93,0.01,,,0.03,meteohub,2013-06-30 03:56:00,